Location: Village de las Huertas
(35.3014°N, 106.4095°W)
Time: 21:01:34
(UTC+00:00)

X-37B - Visible Passes

Search period start: 18 January 2021 00:00
Search period end: 28 January 2021 00:00
Orbit: 384 x 390 km, 45.0° (Epoch: 02 January)

Date Brightness Start Highest point End Pass type
(mag) Time Alt. Az. Time Alt. Az. Time Alt. Az.
18 Jan 2.2 00:51:58 10° SSW 00:54:32 22° SE 00:57:06 10° E visible
18 Jan 3.1 02:27:58 10° W 02:29:24 22° W 02:29:24 22° W visible
19 Jan 0.6 01:29:19 10° WSW 01:32:29 81° NW 01:33:47 33° NE visible
20 Jan 2.4 02:08:02 10° W 02:10:23 26° NW 02:10:23 26° NW visible
21 Jan 1.5 01:09:08 10° W 01:12:11 42° NNW 01:14:40 14° NE visible
22 Jan 2.6 01:48:15 10° WNW 01:50:38 19° NNW 01:51:10 18° N visible
23 Jan 2.2 00:49:12 10° W 00:51:57 26° NNW 00:54:43 10° NE visible
23 Jan 3.7 02:27:29 10° NW 02:27:40 11° NW 02:27:40 11° NW visible
24 Jan 2.8 01:28:30 10° NW 01:30:32 16° N 01:31:52 13° NNE visible
25 Jan 3.2 02:07:23 10° NNW 02:08:20 13° NNW 02:08:20 13° NNW visible
26 Jan 2.9 01:08:39 10° NW 01:10:29 14° N 01:12:18 10° NNE visible
27 Jan 2.7 01:47:02 10° NNW 01:49:05 17° N 01:49:05 17° N visible
